Regional Weather Roundup
Issued by NWS

Home | Current Version | Previous Version | Graphics & Text | Print | Product List | Glossary On
Versions: 1 2 3 4 5 6 7 8 9 10 11 12 13 14 15 16 17 18 19 20 21 22 23 24 25 26 27 28 29 30 31 32 33 34 35 36 37 38 39 40 41 42 43 44 45 46 47 48 49 50
000
ASUS45 KTFX 281504
RWRMT
MONTANA HOURLY WEATHER ROUNDUP
NATIONAL WEATHER SERVICE GREAT FALLS MT
804 AM MST FRI NOV 28 2014

NOTE: "FAIR" INDICATES FEW OR NO CLOUDS BELOW 12000 FEET WITH NO
SIGNIFICANT WEATHER AND/OR OBSTRUCTIONS TO VISIBILITY.

* THESE STATIONS ARE NOT UNDER NWS QUALITY CONTROL. THEY DO NOT
   REPORT WEATHER SUCH AS PRECIPITATION OR FOG.

MTZ001>007-043-281600-
WEST OF THE DIVIDE
CITY           SKY/WX    TMP DP  RH WIND       PRES   REMARKS
KALISPELL      CLOUDY    45  39  80 S8        29.52F
MISSOULA       CLOUDY    45  37  74 SE12      29.67F
BUTTE          CLOUDY    43  30  60 S12       29.74F
MULLAN PASS    LGT RAIN  36  36 100 SW14G31   29.58F VSB 1 3/4 WCI  27
* ESSEX        N/A       40  37  89 SW2G8      N/A
* LINCOLN      N/A       39  36  89 W2G9       N/A
* LOOKOUT PASS N/A       41  38  89 E12G21     N/A
* POLSON       N/A       41  35  79 S3G8       N/A
* RONAN APT    PTCLDY    46  37  71 SE13G18    N/A
* SEELEY LAKE  N/A       43  35  73 S8G14      N/A
* THOMP F APT  PTSUNNY   34  25  70 NE6        N/A   WCI  29
* YAAK HILL    N/A       47  38  71 S2G9       N/A
$$

MTZ008-052>055-281600-
SOUTHWEST MONTANA
CITY           SKY/WX    TMP DP  RH WIND       PRES   REMARKS
BOZEMAN        CLOUDY    52  27  38 S6        29.69F
DILLON         CLOUDY    43  27  53 SE10      29.75R
* W YELLOWSTON CLOUDY    37  24  59 SW4G16     N/A
* ENNIS APT    PTSUNNY  N/A N/A N/A N/A        N/A
* THREE FORKS  CLOUDY    52  52 100 SW14G28    N/A
* BOULDER HILL N/A       43  24  47 S15G24     N/A
* MONIDA PASS  N/A       28  24  85 SE15       N/A   WCI  16
* RAYNOLDS PAS N/A       39  23  53 S12G23     N/A   WCI  32
* WHITEHALL    N/A       50  29  44 SW9G24     N/A
* WISE RIVER   N/A       38  33  82 NW12G21    N/A   WCI  30
$$

MTZ009>010-012-014-046-048-049-054-281600-
EAST SLOPES AND CENTRAL MONTANA
CITY           SKY/WX    TMP DP  RH WIND       PRES   REMARKS
CUT BANK       PTCLDY    41  34  76 SW20      29.42S
GREAT FALLS    SUNNY     48  34  59 SW30G37   29.50F
HELENA         CLOUDY    48  34  59 SW7       29.65S
MALMSTROM AFB  SUNNY     50  34  54 SW23G36   29.53F
* DEARBORN     N/A       53  33  47 S12G27     N/A
* EAST GLACIER N/A       38  35  89 W18G24     N/A   WCI  28
* MONARCH      N/A       44  21  40 SW27G35    N/A
* PENDROY      N/A       39  35  86 W15        N/A   WCI  31
* ROGERS PASS  N/A       38  34  86 SE10G19    N/A   WCI  31
* SAINT MARY   N/A       40  36  86 S8G21      N/A   WCI  35
* SWEET GRASS  N/A       18  17  96 NE10       N/A   WCI   6
$$

MTZ011-013-016-021-035-040-045-047-050-051-281600-
NORTH CENTRAL MONTANA
CITY           SKY/WX    TMP DP  RH WIND       PRES   REMARKS
HAVRE          FOG       25  23  92 E6        29.46F VSB 1/2  WCI  18
LEWISTOWN      PTSUNNY   52  28  40 W23G35    29.55F
* N BAR RANCH  SUNNY     52  27  38 SW10G18   29.56F
* CHESTER      N/A       28  27  96 S3         N/A
* DENTON       N/A       46  30  54 SW20G26    N/A
* GEYSER       N/A       49  27  43 SW21G26    N/A
* JUDITH GAP   N/A       48  24  39 S4G12      N/A
* LOMA         N/A       47  35  63 SW2        N/A
$$

MTZ017>020-022>027-061-062-281600-
NORTHEAST MONTANA
CITY           SKY/WX    TMP DP  RH WIND       PRES   REMARKS
GLASGOW        FOG       19  16  88 E20       29.55F VSB 3    WCI   3
GLENDIVE       CLOUDY    21  19  92 NE5       29.60F WCI  14
JORDAN         CLOUDY    32  30  92 CALM      29.54F
SIDNEY         PTSUNNY   19  16  88 CALM      29.64F
WOLF POINT     FOG       18  16  92 E10       29.62F WCI   6
* BEAVER HILL  N/A       40  31  70 S3         N/A
* CIRCLE       N/A       22  20  92 NE5G11     N/A   WCI  15
* LINDSAY DVD  N/A       45  34  65 SW10       N/A
* NAVAJO       N/A       11   8  88 SE6        N/A   WCI   1
* SACO         N/A       19  16  88 E9G14      N/A   WCI   8
$$

MTZ028>042-056>058-281600-
SOUTHCENTRAL AND SOUTHEAST MONTANA
CITY           SKY/WX    TMP DP  RH WIND       PRES   REMARKS
BAKER          CLOUDY    43  30  60 W5        29.62F
BILLINGS       CLOUDY    46  28  50 SW9       29.63F
LIVINGSTON     CLOUDY    52  25  35 SW36G49   29.63F
MILES CITY     CLOUDY    37  30  76 SE12      29.59F WCI  29
* LAUREL APT   CLOUDY    43  21  42 N/A        N/A
* ALZADA       N/A       38  30  73 NE2        N/A
* HYSHAM       N/A       52  22  31 W6G11      N/A
* LAME DEER    N/A       50  26  39 SW7        N/A
* REED POINT   N/A       55  26  33 W22G32     N/A
* ROSCOE HILL  N/A       48  15  27 SW24G41    N/A
$$

REGIONAL REPORTS...DAKOTAS
CITY           SKY/WX    TMP DP  RH WIND       PRES   REMARKS
WILLISTON      CLOUDY    16  10  77 E9        29.66F WCI   5
DICKINSON      PTSUNNY   18  14  84 E10       29.63R WCI   6
BEACH          SUNNY     37  32  82 SW3       29.60F
CROSBY         CLOUDY     9   7  91 E13       29.70F WCI  -7
BISMARCK       PTSUNNY   10   9  96 E9        29.78F WCI  -3
GRAND FORKS    CLOUDY    12   9  88 E7        29.96S WCI   1
FARGO          CLOUDY    14   7  73 E9        29.93F WCI   2
BUFFALO SD     PTSUNNY   43  30  60 CALM      29.58F
RAPID CITY     PTSUNNY   37  28  70 S7        29.71R WCI  32
$$

REGIONAL REPORTS...WYOMING/IDAHO/WASHINGTON
CITY           SKY/WX    TMP DP  RH WIND       PRES   REMARKS
GILLETTE       CLOUDY    46  27  48 SW16      29.71F
SHERIDAN       CLOUDY    54  23  30 W10       29.66F
CODY           PTSUNNY   54  19  25 SW26G41   29.70R
YELLOWSTONE LA CLOUDY    37  19  48 VRB7      29.92F WCI  32
SALMON         CLOUDY    45  30  56 S3        29.78F
MULLAN PASS    LGT RAIN  36  36 100 SW14G31   29.58S VSB 1 3/4 WCI  27
SAND POINT     CLOUDY    50  41  71 SW13G20   29.52F
SPOKANE        PTSUNNY   48  43  83 SW20G32   29.54F
$$

REGIONAL REPORTS...ALBERTA
CITY           SKY/WX    TMP DP  RH WIND       PRES   REMARKS
EDMONTON       LGT SNOW  -6 -13  71 NW10      29.79F VSB 3/4  WCI -23

$$



USA.gov is the U.S. government's official web portal to all federal, state and local government web resources and services.